Dewpoint
22 23 23 20 20 22 21 16 12 9 14 14 21 23 24 24 25 25 24 26 26 26 28 29 30 31 31 31 30 31 32 32 32 31 30 30 30 31 31 30 30 29 29 29
4 15 15 12 16 21 21 17 14 12 17 16 14 21 24 26 25 22 22 23 25 26 25 25 27 30 31 31 30 30 30 31 30 29 29 29 29 29 28 28 28 28 28 27
-16 8 -1 -16 -8 11 16 16 17 12 13 21 22 23 23 23 23 21 19 19 23 24 25 27 28 29 29 30 31 30 29 29 29 29 28 27 27 27 27 27 29 30 30 29
-11 -4 -26 -5 4 10 11 13 14 15 18 21 21 22 19 17 21 23 22 23 23 27 27 27 28 29 30 30 31 30 30 29 28 28 28 28 28 27 27 29 29 29 29 29
-9 -13 -6 4 13 14 10 4 14 16 16 21 20 17 20 23 21 23 23 23 23 23 25 27 26 28 28 29 30 30 30 30 29 29 28 28 28 28 29 28 28 28 28 28
7 -11 -23 -5 21 20 13 4 18 20 21 20 15 12 13 20 20 20 19 19 20 21 21 21 23 26 28 28 28 28 28 30 30 30 30 29 29 28 28 28 27 27 27 27
7 2 3 8 24 15 4 -5 20 17 18 17 11 13 18 20 17 16 16 18 19 19 20 21 22 23 26 27 27 28 28 28 29 29 29 28 28 27 26 26 26 26 26 26
10 8 -2 21 22 13 15 20 20 20 19 19 19 19 18 17 13 13 15 12 13 14 17 22 23 24 25 26 28 28 27 27 27 27 27 27 26 25 25 25 24 23 22 21
9 8 17 19 19 20 20 21 20 19 19 19 18 16 15 13 12 9 8 7 7 8 11 13 14 21 25 26 26 26 26 26 26 26 26 26 24 23 23 23 22 21 21 20
10 14 15 16 17 17 18 18 17 18 16 13 12 12 11 11 9 7 6 6 5 5 6 8 9 13 14 17 20 25 25 25 25 24 24 24 24 24 23 22 21 21 21 21
12 13 14 14 15 14 15 14 12 11 11 10 9 9 9 8 8 7 5 4 4 4 5 6 7 8 9 11 15 19 23 24 23 23 25 22 23 23 23 23 23 21 21 20
1 10 11 12 13 13 13 11 10 9 8 7 6 6 7 6 7 7 4 4 4 4 4 5 6 6 7 9 12 15 19 20 21 21 21 21 20 20 25 24 25 25 22 20
10 11 10 11 10 11 11 9 7 6 5 4 4 4 4 4 5 6 2 3 4 4 4 5 6 6 6 7 9 12 13 16 18 21 19 19 19 18 18 21 25 23 22 20
10 10 10 10 8 8 9 9 7 3 2 2 2 2 2 2 1 0 1 1 3 4 4 4 4 5 7 7 8 9 10 14 15 17 18 18 18 18 18 18 18 19 22 24
7 7 7 7 5 5 5 3 2 1 0 1 -1 0 -0 1 -0 -2 -2 0 3 3 3 4 4 6 6 7 7 8 10 11 14 15 16 18 18 18 18 17 17 15 16 18
4 5 5 4 3 2 1 1 1 0 -1 -1 -1 0 -1 -2 -2 -2 -3 -2 2 2 3 4 4 5 6 7 7 8 9 13 15 15 15 16 18 17 17 17 16 16 15 14
4 4 3 3 2 1 1 -1 -0 -0 -1 -2 -1 -1 -2 -2 -4 -4 -3 -3 -2 -1 -2 1 5 5 -1 -3 5 9 9 10 12 12 13 14 15 16 17 17 16 16 16 15
2 1 1 1 1 0 0 -1 -1 -1 -0 0 -1 -3 -2 -1 -4 -6 -6 -6 -1 -2 -3 -3 3 5 -2 -2 1 9 9 9 10 11 12 12 13 14 14 15 15 15 16 17
1 2 1 1 0 -0 0 -0 -1 -1 -1 -2 -1 -1 -3 -3 -4 -7 -7 -6 -5 -4 -4 -3 4 6 -0 1 3 9 7 6 6 7 8 9 8 7 8 9 9 10 11 11
1 -0 -0 1 0 1 1 -0 -1 -0 -0 -1 -2 -2 -2 -2 -3 -5 -6 -6 -7 -7 -4 -1 3 6 2 0 3 7 4 3 4 3 6 4 5 4 4 6 6 6 6 7
1 -1 -2 -2 -2 -3 -3 -4 -6 -6 -5 -5 -4 -2 -2 -2 -2 -2 -3 -4 -4 -5 -2 3 2 1 0 2 5 4 1 -3 -6 -8 -8 -8 -8 -6 -3 -2 -1 1 2 3
2 2 0 -2 -5 -7 -6 -7 -7 -7 -6 -6 -5 -4 -1 -1 -3 -3 -1 -2 -2 -1 -1 1 2 2 3 8 2 -2 -5 -7 -8 -10 -10 -10 -10 -9 -8 -7 -6 -4 -3 -2
3 2 1 -2 -4 -7 -8 -7 -6 -6 -6 -4 -2 -1 -1 -1 -4 -4 -4 -2 -1 -2 0 6 4 1 8 0 -2 -4 -7 -8 -9 -9 -9 -9 -9 -9 -8 -7 -5 -6 -5 -5
2 1 -1 -4 -6 -6 -8 -9 -8 -7 -6 -5 -4 -3 -2 -4 -5 -3 -1 1 -2 -2 -1 6 4 2 5 2 2 -3 -7 -7 -7 -8 -8 -0 -7 -9 -9 -8 -6 -7 -9 -5
-0 -2 -4 -5 -6 -8 -8 -7 -7 -6 -6 -6 -6 -5 -4 -4 -3 -3 -3 -4 -2 -2 0 -0 -1 1 2 -4 -5 -5 -5 -7 -7 -7 -7 -8 -8 -8 -8 -8 -8 -7 -8 -8
-3 -3 -4 -5 -6 -7 -7 -6 -6 -6 -5 -6 -6 -4 -4 -3 -2 -0 -0 -1 -2 -1 1 2 -1 -3 -3 -4 -3 -4 -5 -5 -1 -2 -2 -3 -4 -5 -5 -6 -7 -7 -6 -6
-4 0 -2 -4 -5 -5 -5 -5 -6 -5 -4 -3 -3 -3 -5 -4 -3 -0 -0 -3 -4 -2 -0 -1 -3 -4 -3 -3 -3 -2 -2 -3 -0 -3 -4 -3 -4 -5 -5 -5 -6 -6 -6 -7
Wind_Speed
1 1 1 3 6 11 15 8 9 5 11 3 12 15 11 4 2 2 4 5 7 9 9 10 11 12 12 12 11 9 8 7 7 5 4 5 7 10 11 14 15 17 17 15
3 2 1 8 11 13 13 8 12 6 16 11 3 0 2 5 2 1 2 4 5 6 9 11 11 10 11 11 13 9 9 11 7 6 7 8 8 9 9 10 12 14 14 15
4 2 3 9 21 18 9 9 10 16 10 3 3 2 1 4 5 1 3 4 4 7 8 9 10 9 11 11 9 11 11 9 8 7 9 9 10 12 13 14 13 13 13 14
3 1 10 3 2 3 11 6 13 4 4 2 3 3 1 3 6 6 4 6 4 6 9 11 9 10 10 9 10 10 11 12 9 9 10 10 11 13 12 10 12 14 13 13
4 9 8 4 7 8 9 10 10 9 8 7 6 4 5 4 1 4 4 7 9 12 13 13 15 13 13 14 11 10 11 12 12 12 11 11 11 11 12 12 11 12 11 12
5 6 10 1 3 5 5 12 14 12 14 14 10 10 5 3 5 9 10 11 14 17 15 16 17 15 13 14 14 13 13 15 14 14 15 16 15 15 9 10 12 10 10 10
9 8 11 6 7 5 9 8 12 12 12 13 7 3 4 5 10 11 11 15 17 18 17 18 18 15 14 13 15 17 14 13 13 13 14 14 13 10 12 12 11 11 11 10
6 7 14 7 7 8 3 5 10 8 6 6 4 4 7 9 13 14 14 17 17 16 16 17 17 13 13 14 16 13 12 13 13 13 12 11 14 12 12 12 11 11 10 9
15 9 1 2 2 2 2 8 6 9 6 5 3 2 5 6 10 13 14 15 15 16 15 15 19 18 15 13 16 14 14 14 14 13 12 11 13 13 12 12 11 12 12 12
3 3 4 5 7 6 8 11 9 9 7 5 4 2 2 4 8 11 13 15 15 17 19 20 19 17 15 17 18 14 14 13 12 13 12 11 10 11 11 13 13 13 13 12
5 2 2 4 4 8 10 10 10 8 5 5 3 2 3 4 7 10 11 13 14 15 15 17 18 18 17 17 18 14 10 9 11 11 12 11 9 11 11 10 12 13 13 12
8 4 2 2 11 7 8 6 5 5 5 6 6 5 4 6 6 7 11 12 15 16 16 16 16 17 18 17 16 15 9 4 4 5 5 8 9 7 11 11 15 17 15 14
1 4 8 12 8 6 8 7 8 9 7 6 5 5 5 4 5 8 11 13 14 13 12 14 15 16 17 17 15 12 11 9 6 4 5 6 7 9 10 8 14 15 16 15
7 9 8 3 5 7 11 10 10 9 7 6 4 4 3 4 5 8 10 10 10 10 12 13 14 14 14 15 14 13 11 11 8 6 4 5 7 7 7 10 10 4 4 6
7 6 7 12 9 8 7 7 6 6 3 4 4 3 3 4 6 8 10 11 9 7 12 13 14 16 13 12 13 14 12 10 8 7 7 7 7 8 8 8 8 6 4 3
8 10 8 8 8 6 5 4 5 4 2 2 3 3 4 4 5 6 8 10 6 9 10 11 10 12 13 13 14 13 12 14 11 6 5 6 5 4 5 6 6 6 5 5
6 3 4 3 4 3 3 3 3 2 1 2 3 4 4 5 4 8 10 10 7 8 7 8 11 10 12 14 14 12 11 11 12 9 8 8 6 3 2 4 6 6 6 5
1 3 3 2 8 6 4 4 4 4 4 4 4 4 5 5 7 9 10 11 11 12 10 11 13 4 13 15 14 10 11 10 8 8 7 7 7 6 5 2 1 1 2 1
2 4 4 4 5 4 4 5 7 6 6 6 6 8 7 7 7 8 9 10 10 11 13 13 15 11 13 14 13 6 8 7 7 7 8 9 10 11 11 10 10 10 9 8
3 3 3 3 3 6 6 6 6 8 9 7 9 10 11 11 9 9 8 10 10 11 13 16 15 8 12 14 13 4 2 4 6 8 6 8 8 8 9 9 8 7 7 6
7 6 6 6 6 6 6 5 5 9 10 8 10 13 13 12 10 11 11 13 12 12 14 12 9 11 12 14 8 3 5 5 5 5 5 5 6 5 5 4 4 4 4 3
9 9 9 8 7 8 7 7 7 9 10 12 12 12 12 12 11 12 11 14 12 15 11 8 10 14 16 3 10 9 6 3 1 1 2 3 4 5 5 5 6 6 6 5
9 9 9 8 9 8 5 7 10 10 11 10 10 10 11 11 11 12 14 10 9 12 12 4 11 16 3 10 7 3 2 4 6 6 7 7 7 7 7 8 8 8 8 9
6 8 9 5 5 6 11 11 8 9 10 11 11 12 12 13 14 11 12 13 15 13 11 7 11 15 13 5 1 6 9 11 11 11 11 11 11 10 10 12 13 12 11 11
7 7 6 8 10 13 12 12 11 11 11 12 12 12 13 11 13 12 11 11 14 14 10 13 15 14 5 7 6 8 10 12 13 12 14 14 15 14 15 14 16 16 15 14
6 9 11 12 13 12 13 11 13 13 11 13 13 12 12 11 12 13 12 15 13 15 12 9 10 13 14 14 12 12 12 13 13 14 13 13 14 15 16 16 16 16 16 16
10 11 10 12 12 13 13 14 15 17 14 14 16 12 13 13 13 13 13 13 14 14 14 13 13 14 12 13 14 14 14 14 14 13 15 15 15 16 16 16 16 16 16 16
Wind_Direction
187 56 220 218 184 190 206 199 223 227 202 175 205 210 215 186 111 7 32 33 13 6 0 357 355 349 346 346 345 334 306 273 259 246 236 223 212 202 189 181 180 171 159 159
243 95 59 256 242 214 221 232 243 229 266 240 262 155 220 231 242 253 12 329 357 354 350 342 338 334 334 333 332 330 314 291 269 228 200 195 182 168 160 155 151 148 146 147
239 347 316 277 241 205 194 199 192 232 238 165 161 159 217 204 182 223 319 314 305 329 329 331 329 320 319 313 312 312 297 283 265 241 221 195 164 158 162 157 144 147 148 151
221 95 261 271 183 206 208 213 197 172 173 180 150 138 151 193 107 64 26 12 338 313 318 307 303 302 296 291 294 291 286 274 254 232 218 190 177 171 156 152 160 159 158 161
207 208 302 234 212 184 182 228 200 208 184 172 159 130 95 88 93 38 358 331 312 313 308 297 295 288 294 286 271 272 275 264 238 217 207 190 190 185 169 171 173 175 173 173
160 213 247 272 166 169 132 258 189 184 177 169 160 186 189 52 22 17 355 348 339 336 327 318 311 291 284 277 273 266 264 253 234 218 214 207 203 193 177 178 177 166 168 173
198 238 282 222 156 151 182 254 161 170 164 158 171 138 107 42 27 12 358 352 348 341 327 316 313 305 278 269 269 265 260 246 232 221 216 206 192 178 171 171 168 173 177 180
158 209 270 153 129 196 151 84 134 120 127 130 89 51 35 35 14 10 7 355 353 342 333 324 311 312 284 273 270 271 252 245 229 215 203 187 181 170 168 168 171 174 173 177
193 218 128 19 85 70 131 137 122 124 120 117 122 56 13 9 19 11 3 353 351 349 338 344 349 349 310 308 308 281 255 238 219 201 191 180 176 171 172 174 178 181 184 188
193 185 171 116 79 78 92 115 105 112 120 115 136 86 25 16 13 10 5 6 357 1 0 353 350 352 352 338 330 279 253 231 210 197 185 177 179 178 179 182 184 185 186 190
245 215 140 229 162 128 108 106 104 88 96 104 121 95 69 37 22 8 3 0 4 8 1 354 350 351 351 347 340 332 279 237 211 199 195 183 189 190 194 197 192 189 193 188
248 179 145 157 147 132 131 117 98 124 98 69 68 65 51 51 22 17 9 0 4 5 360 355 356 355 354 351 347 341 336 308 255 205 191 186 193 208 225 216 223 216 211 199
157 92 96 117 94 89 110 105 91 92 88 96 62 60 54 34 7 17 9 5 1 350 352 359 2 360 355 349 347 348 342 342 329 304 227 218 204 204 218 249 222 219 213 208
83 109 102 120 137 99 112 109 110 108 100 95 93 71 63 41 11 9 2 342 340 357 8 3 0 358 349 351 350 349 342 332 340 317 291 239 226 221 214 208 212 179 202 182
54 68 106 121 112 109 114 127 122 116 90 75 50 63 43 23 2 348 341 343 340 7 8 0 2 357 346 352 356 349 342 328 316 305 304 283 235 216 212 215 213 203 186 204
96 90 102 119 132 128 124 117 132 123 96 33 6 360 343 317 307 327 345 357 4 357 345 348 351 347 357 359 350 348 343 338 5 350 306 303 301 229 203 199 195 194 198 211
122 126 141 164 172 155 135 128 135 171 235 278 307 311 305 321 322 344 342 346 343 323 320 341 334 332 2 2 352 350 340 341 354 360 353 360 359 309 243 217 205 199 203 205
133 111 109 159 182 183 191 209 223 242 254 249 280 296 302 306 316 320 324 330 327 328 331 335 326 310 356 349 331 325 334 341 348 352 349 346 360 345 358 11 28 164 136 174
130 129 122 118 156 183 203 218 227 238 253 268 278 283 290 285 282 289 308 319 319 319 313 324 317 342 331 329 331 4 355 359 36 38 30 34 41 37 38 43 47 50 54 62
165 171 177 196 202 214 238 246 251 258 265 266 268 276 281 283 280 282 296 295 293 290 292 296 303 295 307 315 311 341 24 76 69 48 52 45 44 36 31 29 34 31 30 37
224 214 220 223 232 228 235 244 258 270 279 276 271 270 269 276 281 278 278 283 290 304 291 288 318 309 302 297 283 154 123 96 76 57 43 32 18 15 4 354 346 340 334 333
234 230 235 235 236 254 252 260 261 275 280 284 279 270 262 269 281 280 260 261 280 297 294 293 297 296 289 265 135 137 130 125 113 314 316 313 312 311 307 302 299 300 299 296
243 235 241 240 238 255 272 272 275 268 268 275 280 271 256 261 275 275 277 277 280 285 278 274 277 292 281 125 122 131 202 241 254 258 262 262 266 270 275 276 277 274 279 280
244 235 239 236 216 249 277 287 272 265 260 270 270 266 263 273 279 259 249 271 289 296 288 270 275 288 130 113 323 258 250 251 252 253 256 263 256 256 257 263 270 266 261 267
260 260 245 236 247 259 265 272 275 275 273 274 272 266 259 248 244 262 244 260 275 283 296 289 285 286 336 305 283 272 263 260 261 261 261 263 266 262 258 258 259 256 259 258
276 263 257 253 253 258 261 262 262 270 270 275 274 264 265 257 257 266 253 257 254 260 266 258 278 281 273 274 273 267 264 264 265 271 270 257 255 257 257 259 259 259 261 255
272 272 267 271 260 251 249 252 258 264 261 254 262 264 258 259 258 262 258 251 248 252 256 260 267 275 273 266 265 263 262 261 261 256 256 258 256 256 256 255 255 254 253 253